Date,TemperatureHighF,TemperatureAvgF,TemperatureLowF,DewpointHighF,DewpointAvgF,DewpointLowF,HumidityHigh,HumidityAvg,HumidityLow,PressureMaxIn,PressureMinIn,WindSpeedMaxMPH,WindSpeedAvgMPH,GustSpeedMaxMPH,PrecipitationSumIn
2012-1-1,38.0,26.4,19.0,13.0,4.5,-13.0,70,42,15,0.00,40.00,5,3,20,0.00
2012-1-2,58.0,40.0,19.0,16.0,10.7,7.0,73,34,14,0.00,40.00,8,5,16,0.00
2012-1-3,54.0,48.1,40.0,14.0,8.4,5.0,27,20,14,0.00,40.00,8,5,21,0.00
2012-1-4,62.0,45.4,29.0,13.0,6.7,1.0,45,22,10,0.00,40.00,9,6,22,0.00
2012-1-5,68.0,52.4,45.0,17.0,13.7,11.0,29,22,13,0.00,40.00,15,8,28,0.00
2012-1-6,48.0,36.6,22.0,23.0,16.6,12.0,79,48,23,0.00,40.00,14,5,25,0.00
2012-1-7,36.0,26.4,21.0,27.0,19.8,16.0,95,77,51,0.00,40.00,4,3,8,0.00
2012-1-8,39.0,25.0,16.0,20.0,14.3,8.0,89,65,45,0.00,40.00,8,4,14,0.18
2012-1-9,50.0,35.8,23.0,23.0,16.0,5.0,62,45,29,0.00,40.00,9,6,21,0.01
2012-1-10,61.0,45.3,35.0,22.0,11.6,-1.0,57,30,9,0.00,40.00,10,6,24,0.00
2012-1-11,35.0,18.6,5.0,21.0,10.2,0.0,88,73,30,0.00,40.00,5,3,15,0.00
2012-1-12,36.0,25.2,7.0,4.0,-4.5,-8.0,76,28,15,0.00,40.00,13,7,30,0.01
2012-1-13,44.0,33.5,22.0,4.0,-2.8,-8.0,33,21,15,0.00,40.00,17,9,35,0.01
2012-1-14,54.0,43.7,36.0,8.0,4.4,-5.0,25,20,12,0.00,40.00,13,8,38,0.00
2012-1-15,52.0,44.6,38.0,5.0,0.3,-5.0,22,16,9,0.00,40.00,9,4,27,0.00
2012-1-16,39.0,25.5,15.0,19.0,12.4,1.0,91,61,20,0.00,40.00,8,3,18,0.00
2012-1-17,26.0,20.2,13.0,1.0,-8.8,-11.0,52,27,19,0.00,40.00,16,11,42,0.00
2012-1-18,43.0,34.1,25.0,17.0,7.1,-6.0,46,32,25,0.00,40.00,20,13,55,0.00
2012-1-19,59.0,46.8,37.0,28.0,23.4,17.0,58,41,24,0.00,40.00,25,15,55,0.00
2012-1-20,48.0,43.0,35.0,25.0,20.3,14.0,51,40,30,0.00,40.00,28,12,58,0.00
2012-1-21,58.0,45.6,34.0,28.0,18.3,11.0,46,34,21,0.00,40.00,13,7,31,0.00
2012-1-22,43.0,35.3,28.0,19.0,8.0,-4.0,50,32,19,0.00,40.00,17,6,45,0.00
2012-1-23,47.0,34.0,27.0,15.0,7.4,1.0,47,33,19,0.00,40.00,12,4,24,0.00
2012-1-24,37.0,29.3,19.0,25.0,18.4,12.0,92,66,42,0.00,40.00,6,2,13,0.00
2012-1-25,57.0,39.2,19.0,16.0,9.0,-2.0,85,31,14,0.00,40.00,14,7,33,0.00
2012-1-26,53.0,41.4,32.0,28.0,14.7,6.0,72,36,16,0.00,40.00,13,7,27,0.00
2012-1-27,38.0,26.7,13.0,21.0,15.0,3.0,90,65,28,0.00,40.00,12,5,27,0.01
2012-1-28,41.0,28.3,13.0,8.0,-5.1,-14.0,80,27,12,0.00,40.00,16,6,42,0.01
2012-1-29,50.0,40.6,32.0,15.0,7.6,-8.0,38,26,15,0.00,40.00,13,7,35,0.00
2012-1-30,54.0,44.8,38.0,11.0,8.4,4.0,30,23,15,0.00,40.00,13,6,31,0.00
2012-1-31,47.0,35.9,29.0,13.0,9.5,2.0,41,33,25,0.00,40.00,7,4,18,0.00
2012-2-1,46.0,35.9,29.0,13.0,8.5,4.0,41,32,21,0.00,40.00,6,4,16,0.00
2012-2-2,44.0,32.8,26.0,25.0,10.0,3.0,94,42,21,0.00,40.00,7,3,16,0.00
2012-2-3,27.0,23.9,22.0,25.0,21.7,20.0,94,92,87,0.00,40.00,4,2,9,0.00
2012-2-4,32.0,22.3,17.0,23.0,18.4,13.0,93,86,70,0.00,40.00,4,1,8,0.19
2012-2-5,42.0,22.1,13.0,22.0,13.9,8.0,87,72,42,0.00,40.00,6,4,12,0.25
2012-2-6,37.0,25.4,17.0,21.0,12.4,8.0,92,60,36,0.00,40.00,8,4,15,0.01
2012-2-7,20.0,17.2,14.0,18.0,14.0,10.0,90,88,84,0.00,40.00,5,1,10,0.00
2012-2-8,49.0,28.6,9.0,27.0,14.5,5.0,87,60,26,0.00,40.00,7,3,14,0.17
2012-2-9,44.0,32.8,23.0,24.0,14.8,8.0,67,48,33,0.00,40.00,7,3,13,0.05
2012-2-10,42.0,27.3,15.0,18.0,13.0,7.0,91,58,28,0.00,40.00,8,4,17,0.00
2012-2-11,24.0,12.7,3.0,12.0,6.6,-2.0,87,77,58,0.00,40.00,5,2,9,0.08
2012-2-12,49.0,29.1,10.0,27.0,18.5,7.0,90,66,40,0.00,40.00,6,2,18,0.06
2012-2-13,43.0,31.9,26.0,28.0,23.0,16.0,90,70,53,0.00,40.00,6,3,12,0.00
2012-2-14,50.0,33.6,25.0,21.0,16.5,12.0,77,52,25,0.00,40.00,9,4,29,0.00
2012-2-15,29.0,24.2,20.0,20.0,18.7,13.0,90,79,67,0.00,40.00,6,2,10,0.00
2012-2-16,49.0,29.7,17.0,19.0,11.4,7.0,82,52,19,0.00,40.00,10,4,25,0.00
2012-2-17,43.0,31.1,20.0,21.0,8.3,-1.0,86,42,18,0.00,40.00,9,5,20,0.00
2012-2-18,43.0,28.9,16.0,21.0,11.6,-2.0,86,51,18,0.00,40.00,7,4,16,0.01
2012-2-19,47.0,34.0,27.0,20.0,9.1,-2.0,73,38,18,0.00,40.00,10,4,18,0.01
2012-2-20,40.0,29.2,23.0,23.0,3.7,-2.0,90,38,18,0.00,40.00,18,5,48,0.00
2012-2-21,44.0,34.6,26.0,19.0,9.2,0.0,45,35,25,0.00,40.00,23,11,54,0.00
2012-2-22,52.0,44.5,39.0,29.0,21.0,16.0,68,39,30,0.00,40.00,26,17,55,0.00
2012-2-23,39.0,25.7,14.0,33.0,17.8,-1.0,93,73,40,0.00,40.00,12,4,36,0.25
2012-2-24,41.0,26.0,15.0,11.0,4.7,1.0,62,43,22,0.00,40.00,12,5,28,0.01
2012-2-25,57.0,41.3,24.0,12.0,6.8,1.0,56,27,11,0.00,40.00,14,8,38,0.00
2012-2-26,35.0,25.9,18.0,6.0,-6.2,-16.0,51,26,11,0.00,40.00,15,10,43,0.00
2012-2-27,42.0,27.6,14.0,15.0,2.3,-11.0,56,34,25,0.00,40.00,7,4,15,0.00
2012-2-28,40.0,31.8,25.0,25.0,13.7,2.0,70,48,29,0.00,40.00,15,5,52,0.00
2012-2-29,47.0,33.8,26.0,13.0,3.5,-99.9,40,31,17,0.00,40.00,18,13,51,0.00
2012-3-1,38.0,30.9,24.0,23.0,15.2,3.0,86,54,32,0.00,40.00,10,5,23,0.00
2012-3-2,29.0,22.1,14.0,17.0,3.3,-9.0,86,46,26,0.00,40.00,9,4,24,0.00
2012-3-3,38.0,27.5,16.0,15.0,1.3,-10.0,41,32,24,0.00,40.00,21,12,46,0.00
2012-3-4,55.0,43.1,35.0,15.0,12.9,8.0,42,30,17,0.00,40.00,23,13,58,0.00
2012-3-5,58.0,48.8,37.0,9.0,6.3,3.0,28,18,11,0.00,40.00,17,10,42,0.00
2012-3-6,66.0,52.8,42.0,7.0,0.0,-8.0,23,13,5,0.00,40.00,14,7,38,0.00
2012-3-7,43.0,26.5,22.0,26.0,22.3,7.0,95,87,22,0.00,40.00,7,3,16,0.00
2012-3-8,43.0,30.3,17.0,23.0,12.8,1.0,93,56,18,0.00,40.00,6,3,12,0.02
2012-3-9,56.0,41.4,30.0,9.0,4.0,-1.0,41,23,10,0.00,40.00,8,6,15,0.02
2012-3-10,62.0,47.8,36.0,23.0,11.1,1.0,46,25,10,0.00,40.00,8,6,16,0.00
2012-3-11,58.0,46.0,37.0,28.0,14.6,-3.0,69,33,11,0.00,40.00,11,5,25,0.00
2012-3-12,62.0,51.9,43.0,13.0,9.6,5.0,29,19,12,0.00,40.00,20,8,49,0.00
2012-3-13,68.0,52.5,40.0,13.0,4.8,-7.0,30,17,5,0.00,40.00,10,6,28,0.00
2012-3-14,68.0,54.0,40.0,7.0,-0.4,-10.0,21,11,4,0.00,40.00,7,5,23,0.00
2012-3-15,65.0,53.6,46.0,20.0,12.9,0.0,34,20,12,0.00,40.00,8,4,14,0.00
2012-3-16,69.0,55.3,43.0,19.0,15.0,10.0,38,22,10,0.00,40.00,10,7,22,0.00
2012-3-17,69.0,54.0,41.0,17.0,11.9,8.0,29,20,9,0.00,40.00,9,5,20,0.00
2012-3-18,63.0,49.5,39.0,25.0,14.8,11.0,53,27,13,0.00,40.00,12,7,44,0.00
2012-3-19,40.0,34.6,28.0,12.0,1.8,-4.0,39,25,16,0.00,40.00,11,6,32,0.00
2012-3-20,47.0,34.9,21.0,12.0,7.8,1.0,52,33,24,0.00,40.00,9,4,18,0.00
2012-3-21,57.0,40.1,30.0,18.0,9.7,0.0,38,29,21,0.00,40.00,8,5,17,0.00
2012-3-22,62.0,49.2,37.0,21.0,3.5,-99.9,46,24,16,0.00,40.00,7,-49,15,0.00
2012-3-23,70.0,53.4,40.0,21.0,11.4,-99.9,36,21,12,0.00,40.00,9,6,17,0.00
2012-3-24,67.0,57.3,46.0,30.0,18.9,10.0,53,24,15,0.00,40.00,10,6,19,0.00
2012-3-25,68.0,52.7,41.0,39.0,29.7,23.0,67,43,18,0.00,40.00,8,4,13,0.00
2012-3-26,72.0,56.3,47.0,28.0,14.9,-13.0,45,24,3,0.00,40.00,17,8,45,0.00
2012-3-27,66.0,52.4,44.0,17.0,9.6,3.0,30,19,8,0.00,40.00,12,7,31,0.00
2012-3-28,69.0,53.7,41.0,20.0,14.6,11.0,31,22,11,0.00,40.00,10,6,19,0.00
2012-3-29,66.0,55.8,45.0,23.0,13.2,5.0,33,19,13,0.00,40.00,9,5,22,0.00
2012-3-30,73.0,60.1,49.0,21.0,17.1,14.0,27,19,11,0.00,40.00,9,6,26,0.00
2012-3-31,77.0,62.1,46.0,27.0,22.0,12.0,38,22,13,0.00,40.00,11,5,19,0.00
2012-4-1,75.0,62.0,50.0,16.0,11.1,8.0,20,14,8,0.00,40.00,8,5,17,0.00
2012-4-2,58.0,39.0,31.0,30.0,25.5,11.0,96,64,15,0.00,40.00,8,3,19,0.04
2012-4-3,35.0,30.7,28.0,31.0,29.0,27.0,97,94,84,0.00,40.00,4,2,8,0.06
2012-4-4,56.0,40.5,26.0,39.0,31.9,23.0,96,74,43,0.00,40.00,5,3,13,0.66
2012-4-5,64.0,51.1,38.0,38.0,28.8,20.0,65,43,29,0.00,40.00,8,5,18,0.14
2012-4-6,69.0,50.9,39.0,29.0,11.8,-17.0,53,29,3,0.00,40.00,13,7,35,0.00
2012-4-7,59.0,44.4,32.0,18.0,5.0,-20.0,38,21,5,0.00,40.00,15,8,36,0.00
2012-4-8,65.0,50.1,36.0,15.0,8.2,-1.0,41,20,8,0.00,40.00,8,5,15,0.00
2012-4-9,61.0,49.6,36.0,26.0,16.6,2.0,48,28,15,0.00,40.00,8,4,15,0.00
2012-4-10,69.0,55.3,40.0,37.0,29.2,14.0,51,38,25,0.00,40.00,8,5,16,0.00
2012-4-11,64.0,50.8,38.0,47.0,39.3,27.0,90,67,37,0.00,40.00,10,3,26,0.22
2012-4-12,60.0,48.1,39.0,42.0,28.7,15.0,95,55,20,0.00,40.00,10,6,26,0.22
2012-4-13,60.0,47.0,38.0,22.0,13.5,7.0,42,27,12,0.00,40.00,12,6,31,0.00
2012-4-14,50.0,40.7,33.0,34.0,25.5,-99.9,96,59,41,0.00,40.00,7,3,14,0.12
2012-4-15,47.0,35.9,31.0,35.0,30.1,25.0,97,82,42,0.00,40.00,8,3,21,0.30
2012-4-16,54.0,41.3,30.0,30.0,23.4,16.0,94,55,24,0.00,40.00,10,5,23,0.08
2012-4-17,64.0,50.9,38.0,24.0,19.7,18.0,47,30,17,0.00,40.00,12,6,24,0.01
2012-4-18,70.0,50.2,37.0,34.0,26.1,17.0,70,42,13,0.00,40.00,12,5,29,0.00
2012-4-19,60.0,48.6,39.0,40.0,30.5,23.0,90,53,26,0.00,40.00,12,4,26,0.02
2012-4-20,65.0,49.7,33.0,34.0,28.8,24.0,90,50,24,0.00,40.00,13,5,29,0.01
2012-4-21,70.0,59.0,49.0,34.0,28.1,-99.9,50,33,22,0.00,40.00,10,5,20,0.00
2012-4-22,69.0,54.1,38.0,36.0,31.8,27.0,76,46,21,0.00,40.00,8,4,15,0.00
2012-4-23,77.0,62.7,50.0,33.0,26.8,22.0,44,27,16,0.00,40.00,9,6,17,0.00
2012-4-24,80.0,66.1,55.0,28.0,23.0,16.0,35,21,9,0.00,40.00,11,6,30,0.00
2012-4-25,76.0,63.0,55.0,31.0,23.2,11.0,38,22,14,0.00,40.00,7,4,19,0.00
2012-4-26,73.0,60.5,48.0,44.0,34.7,30.0,86,40,23,0.00,40.00,10,6,30,0.08
2012-4-27,60.0,50.4,39.0,45.0,32.5,14.0,96,57,24,0.00,40.00,14,5,28,0.08
2012-4-28,62.0,43.7,32.0,25.0,9.9,-99.9,53,29,11,0.00,40.00,18,8,48,0.00
2012-4-29,59.0,44.7,30.0,33.0,27.2,21.0,77,52,29,0.00,40.00,7,4,13,0.00
2012-4-30,71.0,55.5,38.0,27.0,12.8,2.0,52,22,7,0.00,40.00,12,7,28,0.00
2012-5-1,71.0,60.7,49.0,31.0,20.0,9.0,41,21,13,0.00,40.00,14,7,29,0.00
2012-5-2,69.0,56.7,44.0,37.0,32.5,30.0,60,41,24,0.00,40.00,8,4,17,0.00
2012-5-3,75.0,63.2,46.0,35.0,29.0,20.0,51,30,15,0.00,40.00,9,5,27,0.00
2012-5-4,80.0,66.1,52.0,25.0,20.2,14.0,27,18,9,0.00,40.00,9,6,17,0.00
2012-5-5,75.0,62.4,47.0,36.0,19.8,-99.9,42,21,9,0.00,40.00,9,5,18,0.00
2012-5-6,55.0,45.0,38.0,38.0,22.3,7.0,97,45,24,0.00,40.00,8,3,17,0.29
2012-5-7,42.0,37.7,33.0,38.0,36.0,32.0,98,94,83,0.00,40.00,3,1,6,0.63
2012-5-8,58.0,45.7,31.0,38.0,30.5,26.0,97,60,31,0.00,40.00,7,4,14,0.02
2012-5-9,72.0,57.3,42.0,31.0,24.0,15.0,62,33,14,0.00,40.00,9,6,19,0.00
2012-5-10,81.0,63.9,52.0,28.0,18.0,9.0,33,18,7,0.00,40.00,12,6,21,0.00
2012-5-11,61.0,38.6,33.0,35.0,31.4,25.0,97,78,28,0.00,40.00,6,2,17,0.14
2012-5-12,42.0,36.5,33.0,40.0,34.9,-99.9,98,97,94,0.00,40.00,4,2,10,0.14
2012-5-13,55.0,44.7,36.0,41.0,37.4,32.0,98,78,48,0.00,40.00,5,2,11,0.07
2012-5-14,70.0,55.6,40.0,32.0,18.9,9.0,70,30,9,0.00,40.00,9,6,21,0.00
2012-5-15,74.0,61.8,49.0,28.0,21.0,16.0,29,21,11,0.00,40.00,9,6,18,0.00
2012-5-16,79.0,61.9,52.0,34.0,27.3,21.0,40,28,14,0.00,40.00,12,6,28,0.00
2012-5-17,76.0,64.4,55.0,31.0,28.9,26.0,38,27,16,0.00,40.00,8,5,20,0.00
2012-5-18,74.0,63.6,53.0,36.0,28.0,21.0,39,26,15,0.00,40.00,9,6,32,0.00
2012-5-19,55.0,45.0,40.0,44.0,38.7,-99.9,96,84,39,0.00,40.00,6,3,23,0.27
2012-5-20,67.0,53.2,39.0,44.0,37.9,33.0,89,59,30,0.00,40.00,7,5,18,0.04
2012-5-21,80.0,64.3,50.0,37.0,28.9,22.0,59,30,12,0.00,40.00,9,6,18,0.00
2012-5-22,88.0,69.4,56.0,30.0,21.4,11.0,33,19,6,0.00,40.00,11,7,26,0.00
2012-5-23,68.0,52.9,43.0,48.0,35.8,12.0,98,59,11,0.00,40.00,7,3,15,0.43
2012-5-24,63.0,49.2,38.0,43.0,30.0,22.0,98,55,21,0.00,40.00,13,7,29,0.32
2012-5-25,66.0,51.2,43.0,43.0,38.4,30.0,78,63,42,0.00,40.00,6,2,11,0.02
2012-5-26,81.0,62.7,44.0,50.0,36.9,6.0,90,50,6,0.00,40.00,9,4,25,0.00
2012-5-27,65.0,56.2,46.0,25.0,7.5,-3.0,23,15,8,0.00,40.00,16,8,37,0.00
2012-5-28,70.0,57.0,44.0,21.0,14.4,9.0,31,20,10,0.00,40.00,11,6,30,0.00
2012-5-29,71.0,57.4,40.0,32.0,22.5,16.0,45,27,16,0.00,40.00,9,4,20,0.00
2012-5-30,77.0,63.0,48.0,37.0,23.9,14.0,61,26,9,0.00,40.00,11,6,26,0.00
2012-5-31,64.0,54.1,42.0,38.0,35.4,32.0,69,51,37,0.00,40.00,7,4,14,0.00
2012-6-1,76.0,63.0,51.0,41.0,37.4,32.0,58,40,25,0.00,40.00,8,4,18,0.00
2012-6-2,73.0,60.2,50.0,45.0,38.3,-99.9,64,47,31,0.00,40.00,12,5,28,0.00
2012-6-3,85.0,69.9,60.0,45.0,35.9,30.0,50,30,15,0.00,40.00,10,6,24,0.00
2012-6-4,87.0,72.8,58.0,44.0,34.1,28.0,40,26,13,0.00,40.00,12,6,23,0.00
2012-6-5,84.0,68.6,56.0,44.0,36.4,30.0,44,32,16,0.00,40.00,11,5,25,0.00
2012-6-6,76.0,65.2,55.0,63.0,41.5,26.0,83,44,29,0.00,40.00,7,4,18,0.01
2012-6-7,78.0,64.4,53.0,55.0,50.3,45.0,78,62,37,0.00,40.00,6,3,15,0.01
2012-6-8,85.0,70.5,54.0,52.0,38.8,22.0,79,40,12,0.00,40.00,8,5,16,0.01
2012-6-9,90.0,76.0,60.0,22.0,15.0,-99.9,18,11,5,0.00,40.00,8,5,20,0.00
2012-6-10,76.0,64.6,50.0,32.0,6.6,-23.0,45,15,2,0.00,40.00,13,7,35,0.00
2012-6-11,72.0,60.6,45.0,25.0,17.3,3.0,30,19,12,0.00,40.00,10,5,23,0.00
2012-6-12,82.0,65.9,49.0,26.0,17.2,4.0,40,19,5,0.00,40.00,10,6,23,0.00
2012-6-13,88.0,72.1,55.0,26.0,17.0,10.0,24,14,6,0.00,40.00,8,6,17,0.00
2012-6-14,78.0,68.2,61.0,41.0,27.5,9.0,39,23,12,0.00,40.00,14,6,30,0.00
2012-6-15,81.0,67.7,57.0,46.0,36.7,24.0,65,36,15,0.00,40.00,12,4,26,0.00
2012-6-16,72.0,59.8,51.0,48.0,38.5,-99.9,59,48,28,0.00,40.00,7,4,14,0.00
2012-6-17,93.0,76.3,60.0,37.0,22.3,6.0,41,17,4,0.00,40.00,12,6,31,0.00
2012-6-18,94.0,81.4,66.0,23.0,13.9,5.0,18,9,4,0.00,40.00,11,7,24,0.00
2012-6-19,89.0,81.3,75.0,33.0,17.9,8.0,19,10,5,0.00,40.00,12,8,28,0.00
2012-6-20,67.0,59.5,50.0,49.0,41.5,21.0,88,54,27,0.00,40.00,7,4,15,0.00
2012-6-21,81.0,66.7,52.0,44.0,37.6,31.0,47,35,26,0.00,40.00,7,4,15,0.00
2012-6-22,97.0,77.0,59.0,44.0,28.1,8.0,46,21,4,0.00,40.00,9,6,19,0.00
2012-6-23,96.0,82.9,68.0,22.0,18.4,16.0,15,10,6,0.00,40.00,8,5,26,0.00
2012-6-24,95.0,82.9,71.0,36.0,24.7,18.0,26,12,7,0.00,40.00,8,5,21,0.00
2012-6-25,94.0,80.6,65.0,41.0,31.9,22.0,33,19,8,0.00,40.00,9,6,16,0.00
2012-6-26,94.0,82.5,71.0,41.0,32.1,27.0,31,17,11,0.00,40.00,10,7,26,0.00
2012-6-27,88.0,74.0,61.0,58.0,41.7,34.0,89,37,16,0.00,40.00,10,5,21,0.10
2012-6-28,87.0,70.9,62.0,61.0,44.6,40.0,88,42,19,0.00,40.00,12,7,26,0.05
2012-6-29,93.0,77.1,65.0,49.0,37.6,26.0,45,26,9,0.00,40.00,11,6,22,0.01
2012-6-30,90.0,78.3,64.0,36.0,33.5,28.0,31,20,13,0.00,40.00,8,5,17,0.01
2012-7-1,95.0,79.4,63.0,44.0,31.1,22.0,36,20,8,0.00,40.00,10,6,17,0.00
2012-7-2,93.0,77.1,64.0,51.0,38.4,28.0,63,29,10,0.00,40.00,8,5,18,0.01
2012-7-3,86.0,73.4,63.0,48.0,43.3,39.0,53,36,23,0.00,40.00,10,6,25,0.01
2012-7-4,90.0,78.4,67.0,43.0,36.3,32.0,34,23,14,0.00,40.00,9,5,17,0.00
2012-7-5,87.0,71.3,59.0,60.0,52.0,38.0,90,53,30,0.00,40.00,11,5,21,0.39
2012-7-6,77.0,64.9,57.0,58.0,51.3,46.0,93,64,42,0.00,40.00,9,5,22,0.70
2012-7-7,69.0,59.6,55.0,60.0,55.3,53.0,98,87,60,0.00,40.00,7,3,20,1.00
2012-7-8,68.0,59.4,55.0,58.0,56.2,55.0,99,90,64,0.00,40.00,5,2,10,0.79
2012-7-9,74.0,62.1,55.0,59.0,55.4,52.0,97,81,46,0.00,40.00,5,3,12,0.57
2012-7-10,78.0,65.9,54.0,57.0,51.9,48.0,87,63,39,0.00,40.00,6,4,11,0.04
2012-7-11,82.0,68.6,58.0,53.0,46.8,39.0,61,47,22,0.00,40.00,8,4,16,0.00
2012-7-12,85.0,70.0,62.0,63.0,45.1,40.0,89,44,24,0.00,40.00,7,5,14,0.04
2012-7-13,86.0,73.3,61.0,50.0,41.6,34.0,52,34,16,0.00,40.00,8,5,16,0.04
2012-7-14,84.0,72.5,63.0,47.0,42.0,36.0,41,34,22,0.00,40.00,8,6,16,0.00
2012-7-15,84.0,71.6,65.0,57.0,46.8,42.0,63,42,29,0.00,40.00,12,6,24,0.01
2012-7-16,83.0,67.5,56.0,54.0,46.9,42.0,89,51,27,0.00,40.00,16,6,30,0.42
2012-7-17,82.0,70.1,58.0,53.0,47.1,43.0,76,46,28,0.00,40.00,13,6,21,0.17
2012-7-18,85.0,73.4,61.0,47.0,42.3,38.0,52,35,19,0.00,40.00,9,6,21,0.00
2012-7-19,90.0,76.3,63.0,48.0,42.2,36.0,42,31,15,0.00,40.00,8,5,20,0.00
2012-7-20,92.0,78.6,66.0,48.0,40.5,34.0,40,27,13,0.00,40.00,7,5,15,0.00
2012-7-21,90.0,77.2,64.0,48.0,41.7,37.0,42,29,18,0.00,40.00,7,5,17,0.00
2012-7-22,84.0,73.0,63.0,51.0,45.5,41.0,48,38,26,0.00,40.00,15,6,27,0.00
2012-7-23,88.0,72.9,62.0,51.0,46.2,41.0,60,41,22,0.00,40.00,17,8,40,0.01
2012-7-24,85.0,73.5,59.0,52.0,46.2,42.0,79,39,25,0.00,40.00,14,6,28,0.04
2012-7-25,85.0,69.5,58.0,54.0,49.2,43.0,88,52,23,0.00,40.00,11,4,28,0.10
2012-7-26,82.0,68.9,56.0,54.0,48.0,42.0,83,50,29,0.00,40.00,10,4,15,0.00
2012-7-27,80.0,67.8,59.0,61.0,48.2,41.0,85,51,34,0.00,40.00,12,6,23,0.21
2012-7-28,85.0,70.3,61.0,56.0,47.3,43.0,80,46,23,0.00,40.00,12,6,24,0.02
2012-7-29,85.0,67.5,58.0,57.0,50.6,45.0,90,59,27,0.00,40.00,11,6,24,0.29
2012-7-30,80.0,67.1,58.0,61.0,52.5,48.0,91,62,36,0.00,40.00,8,4,17,0.24
2012-7-31,90.0,72.4,61.0,53.0,46.9,38.0,71,44,16,0.00,40.00,9,6,20,0.01
2012-8-1,87.0,72.9,59.0,56.0,47.2,42.0,88,43,27,0.00,40.00,8,5,16,0.15
2012-8-2,82.0,71.5,62.0,53.0,47.6,41.0,68,44,29,0.00,40.00,10,5,20,0.01
2012-8-3,87.0,75.5,66.0,42.0,33.3,26.0,41,24,11,0.00,40.00,13,8,30,0.01
2012-8-4,75.0,62.8,52.0,47.0,43.5,38.0,73,51,31,0.00,40.00,7,4,15,0.00
2012-8-5,86.0,70.2,55.0,48.0,42.1,38.0,56,39,18,0.00,40.00,8,5,15,0.00
2012-8-6,87.0,76.4,68.0,46.0,38.2,32.0,46,26,15,0.00,40.00,9,5,18,0.00
2012-8-7,85.0,74.1,63.0,62.0,43.1,31.0,72,35,20,0.00,40.00,8,4,15,0.01
2012-8-8,88.0,75.0,63.0,37.0,30.2,26.0,31,21,11,0.00,40.00,9,6,17,0.01
2012-8-9,83.0,71.1,58.0,46.0,38.7,31.0,38,31,25,0.00,40.00,9,4,16,0.00
2012-8-10,85.0,72.0,58.0,48.0,43.4,39.0,59,38,20,0.00,40.00,10,4,20,0.00
2012-8-11,85.0,69.6,57.0,52.0,41.9,-99.9,82,41,13,0.00,40.00,10,4,32,0.01
2012-8-12,79.0,66.9,55.0,46.0,39.9,35.0,69,41,22,0.00,40.00,8,5,15,0.01
2012-8-13,76.0,66.0,58.0,45.0,40.1,36.0,54,39,28,0.00,40.00,9,5,26,0.00
2012-8-14,88.0,72.3,59.0,44.0,36.1,22.0,46,29,9,0.00,40.00,9,6,21,0.00
2012-8-15,89.0,71.6,55.0,45.0,35.2,20.0,66,30,8,0.00,40.00,8,6,17,0.00
2012-8-16,68.0,57.7,50.0,48.0,45.2,43.0,81,64,46,0.00,40.00,5,2,11,0.00
2012-8-17,79.0,62.3,46.0,47.0,43.3,38.0,89,56,25,0.00,40.00,6,3,11,0.00
2012-8-18,74.0,65.0,56.0,44.0,37.3,33.0,58,38,23,0.00,40.00,7,5,13,0.00
2012-8-19,77.0,63.2,49.0,36.0,32.0,29.0,49,33,18,0.00,40.00,7,5,14,0.00
2012-8-20,78.0,66.4,57.0,44.0,33.4,28.0,57,31,17,0.00,40.00,9,4,21,0.00
2012-8-21,83.0,69.5,56.0,44.0,36.2,33.0,57,32,19,0.00,40.00,9,6,19,0.00
2012-8-22,86.0,71.9,62.0,47.0,37.9,33.0,49,31,17,0.00,40.00,14,7,28,0.00
2012-8-23,75.0,65.7,56.0,55.0,49.8,43.0,94,59,36,0.00,40.00,8,5,17,0.07
2012-8-24,80.0,67.3,58.0,45.0,41.3,34.0,55,41,20,0.00,40.00,11,6,25,0.01
2012-8-25,74.0,67.4,55.0,42.0,36.5,27.0,49,33,24,0.00,40.00,6,5,17,0.00
2012-8-26,86.0,73.1,60.0,42.0,26.4,22.0,51,20,10,0.00,40.00,10,6,25,0.00
2012-8-27,86.0,73.4,63.0,43.0,35.1,27.0,37,26,16,0.00,40.00,14,6,28,0.00
2012-8-28,87.0,74.5,65.0,43.0,40.0,38.0,39,30,19,0.00,40.00,8,5,18,0.00
2012-8-29,90.0,73.8,64.0,45.0,39.6,34.0,40,31,15,0.00,40.00,10,6,24,0.00
2012-8-30,86.0,74.4,67.0,43.0,39.7,37.0,39,29,19,0.00,40.00,9,6,26,0.00
2012-8-31,86.0,71.8,58.0,41.0,36.6,25.0,48,30,12,0.00,40.00,9,5,18,0.00
2012-9-1,82.0,71.2,63.0,48.0,39.5,35.0,45,32,21,0.00,40.00,8,4,27,0.00
2012-9-2,86.0,72.6,63.0,43.0,39.0,33.0,48,31,16,0.00,40.00,8,4,17,0.00
2012-9-3,82.0,69.3,61.0,43.0,35.6,24.0,50,32,12,0.00,40.00,15,6,29,0.00
2012-9-4,85.0,71.5,59.0,32.0,23.8,13.0,35,19,7,0.00,40.00,10,7,24,0.00
2012-9-5,80.0,66.1,49.0,27.0,21.1,13.0,31,19,11,0.00,40.00,10,5,21,0.00
2012-9-6,88.0,71.6,58.0,27.0,17.2,13.0,21,13,7,0.00,40.00,9,6,20,0.00
2012-9-7,69.0,54.9,48.0,49.0,43.5,26.0,95,70,20,0.00,40.00,7,2,14,0.11
2012-9-8,74.0,59.0,45.0,43.0,37.9,31.0,82,50,25,0.00,40.00,7,5,15,0.05
2012-9-9,81.0,65.7,52.0,34.0,27.6,20.0,44,26,11,0.00,40.00,8,6,16,0.00
2012-9-10,87.0,75.5,62.0,30.0,24.0,19.0,25,16,8,0.00,40.00,9,5,19,0.00
2012-9-11,80.0,67.3,54.0,53.0,36.8,29.0,96,36,20,0.00,40.00,9,5,23,0.02
2012-9-12,55.0,49.5,46.0,52.0,48.4,45.0,98,97,86,0.00,40.00,6,1,15,1.01
2012-9-13,65.0,52.3,40.0,48.0,41.0,33.0,99,71,32,0.00,40.00,6,3,12,0.21
2012-9-14,72.0,58.6,47.0,38.0,30.6,26.0,65,37,18,0.00,40.00,8,6,16,0.00
2012-9-15,83.0,66.0,52.0,30.0,22.4,15.0,43,22,8,0.00,40.00,9,6,17,0.00
2012-9-16,82.0,67.6,57.0,24.0,15.7,11.0,23,14,8,0.00,40.00,12,6,22,0.00
2012-9-17,62.0,52.5,47.0,47.0,37.4,24.0,78,58,23,0.00,40.00,7,3,13,0.00
2012-9-18,72.0,57.8,45.0,39.0,32.3,22.0,73,42,21,0.00,40.00,7,5,13,0.00
2012-9-19,76.0,64.5,54.0,28.0,24.3,18.0,34,22,16,0.00,40.00,6,4,12,0.00
2012-9-20,75.0,62.9,52.0,29.0,25.4,19.0,37,25,17,0.00,40.00,10,6,21,0.00
2012-9-21,73.0,62.3,51.0,30.0,26.4,20.0,34,26,17,0.00,40.00,8,5,17,0.00
2012-9-22,72.0,58.9,46.0,35.0,29.9,-99.9,49,35,26,0.00,40.00,7,4,14,0.00
2012-9-23,82.0,67.2,53.0,32.0,22.6,14.0,42,21,8,0.00,40.00,10,6,23,0.00
2012-9-24,76.0,64.3,55.0,38.0,33.7,29.0,49,33,19,0.00,40.00,9,4,19,0.00
2012-9-25,68.0,54.8,49.0,48.0,37.0,32.0,96,53,34,0.00,40.00,8,4,19,0.16
2012-9-26,56.0,50.2,46.0,49.0,46.8,45.0,98,89,72,0.00,40.00,4,1,7,0.36
2012-9-27,58.0,48.7,42.0,48.0,43.2,38.0,96,82,69,0.00,40.00,6,3,13,0.10
2012-9-28,67.0,54.4,44.0,47.0,40.7,36.0,81,61,44,0.00,40.00,8,5,14,0.01
2012-9-29,73.0,59.1,47.0,39.0,35.8,31.0,67,45,24,0.00,40.00,8,5,16,0.00
2012-9-30,70.0,58.9,53.0,46.0,36.3,31.0,56,43,31,0.00,40.00,7,4,16,0.00
2012-10-1,65.0,55.6,46.0,40.0,38.0,35.0,69,53,40,0.00,40.00,7,3,15,0.01
2012-10-2,82.0,63.0,45.0,37.0,26.5,18.0,71,32,9,0.00,40.00,7,5,17,0.01
2012-10-3,79.0,60.8,35.0,32.0,24.8,20.0,75,30,12,0.00,40.00,11,5,24,0.00
2012-10-4,40.0,33.8,31.0,28.0,24.8,23.0,76,69,55,0.00,40.00,5,2,8,0.00
2012-10-5,33.0,29.9,27.0,29.0,27.1,23.0,99,90,75,0.00,40.00,3,2,9,0.03
2012-10-6,30.0,28.4,27.0,29.0,27.9,26.0,99,97,93,0.00,40.00,4,2,10,0.02
2012-10-7,50.0,35.3,22.0,33.0,23.0,9.0,98,67,24,0.00,40.00,6,3,11,0.15
2012-10-8,70.0,53.2,39.0,12.0,5.8,2.0,26,16,8,0.00,40.00,15,6,33,0.14
2012-10-9,54.0,40.9,33.0,34.0,26.2,8.0,87,62,18,0.00,40.00,7,3,15,0.00
2012-10-10,70.0,46.7,32.0,40.0,30.1,24.0,87,57,24,0.00,40.00,7,3,19,0.00
2012-10-11,59.0,52.3,38.0,35.0,29.9,25.0,77,43,33,0.00,40.00,7,4,13,0.00
2012-10-12,59.0,45.7,33.0,40.0,35.3,30.0,90,69,44,0.00,40.00,11,3,31,0.00
2012-10-13,55.0,47.6,42.0,42.0,32.3,23.0,93,57,42,0.00,40.00,8,4,18,0.09
2012-10-14,65.0,52.1,41.0,38.0,30.9,26.0,86,48,24,0.00,40.00,9,5,19,0.07
2012-10-15,76.0,59.9,48.0,29.0,23.8,15.0,48,28,11,0.00,40.00,9,5,25,0.00
2012-10-16,70.0,59.7,44.0,43.0,27.6,23.0,85,31,20,0.00,40.00,13,6,29,0.03
2012-10-17,52.0,45.2,39.0,40.0,10.9,2.0,85,27,13,0.00,40.00,16,10,40,0.05
2012-10-18,61.0,47.1,29.0,14.0,10.0,5.0,48,24,14,0.00,40.00,11,6,30,0.00
2012-10-19,69.0,56.1,43.0,21.0,17.2,14.0,32,22,14,0.00,40.00,12,6,29,0.00
2012-10-20,76.0,60.3,50.0,19.0,16.0,10.0,28,18,8,0.00,40.00,10,5,26,0.00
2012-10-21,69.0,55.8,44.0,30.0,21.4,15.0,58,27,13,0.00,40.00,8,5,17,0.00
2012-10-22,62.0,49.6,35.0,37.0,31.0,20.0,76,51,33,0.00,40.00,6,4,13,0.00
2012-10-23,72.0,57.6,44.0,27.0,15.9,5.0,50,22,7,0.00,40.00,9,5,26,0.00
2012-10-24,44.0,38.4,26.0,36.0,29.3,24.0,99,71,50,0.00,40.00,5,3,12,0.14
2012-10-25,34.0,27.0,24.0,28.0,24.9,23.0,97,92,75,0.00,40.00,4,2,11,0.22
2012-10-26,37.0,26.5,21.0,27.0,23.0,19.0,97,87,63,0.00,40.00,3,1,8,0.37
2012-10-27,47.0,32.0,20.0,30.0,23.6,18.0,92,73,45,0.00,40.00,7,3,24,0.16
2012-10-28,56.0,42.3,29.0,31.0,26.6,23.0,80,56,36,0.00,40.00,6,3,16,0.08
2012-10-29,63.0,51.5,43.0,32.0,28.5,25.0,57,42,26,0.00,40.00,14,5,28,0.00
2012-10-30,66.0,52.1,42.0,30.0,25.9,24.0,52,37,21,0.00,40.00,9,4,19,0.00
2012-10-31,67.0,53.3,43.0,30.0,25.6,22.0,45,35,22,0.00,40.00,7,4,13,0.00
2012-11-1,70.0,53.6,43.0,30.0,20.6,15.0,45,30,12,0.00,40.00,8,6,17,0.00
2012-11-2,59.0,48.2,37.0,29.0,21.8,15.0,66,37,23,0.00,40.00,8,4,15,0.00
2012-11-3,51.0,41.8,35.0,36.0,27.9,20.0,71,59,42,0.00,40.00,6,3,11,0.00
2012-11-4,62.0,48.0,35.0,28.0,20.2,11.0,69,34,23,0.00,40.00,8,4,21,0.00
2012-11-5,64.0,48.4,33.0,31.0,26.1,21.0,82,47,23,0.00,40.00,9,5,22,0.00
2012-11-6,62.0,52.9,45.0,34.0,27.0,19.0,56,37,27,0.00,40.00,8,5,17,0.00
2012-11-7,73.0,56.5,46.0,28.0,17.5,11.0,34,23,10,0.00,40.00,9,5,19,0.00
2012-11-8,55.0,47.7,35.0,29.0,22.0,14.0,68,39,20,0.00,40.00,14,4,29,0.00
2012-11-9,63.0,48.4,35.0,34.0,23.5,14.0,65,39,23,0.00,40.00,9,4,19,0.00
2012-11-10,50.0,34.4,18.0,34.0,25.7,16.0,98,76,33,0.00,40.00,16,5,34,0.00
2012-11-11,33.0,21.5,12.0,16.0,6.4,-5.0,92,58,25,0.00,40.00,16,6,36,0.25
2012-11-12,48.0,33.7,20.0,9.0,0.2,-7.0,35,24,16,0.00,40.00,13,6,27,0.01
2012-11-13,50.0,38.6,28.0,19.0,12.1,3.0,69,35,24,0.00,40.00,14,5,25,0.00
2012-11-14,59.0,36.9,28.0,24.0,15.3,-99.9,69,45,14,0.00,40.00,8,3,16,0.00
2012-11-15,38.0,31.9,27.0,29.0,23.7,16.0,88,73,48,0.00,40.00,4,3,10,0.00
2012-11-16,61.0,42.4,27.0,26.0,18.1,10.0,83,40,13,0.00,40.00,7,4,17,0.00
2012-11-17,59.0,47.6,39.0,29.0,25.3,19.0,57,42,26,0.00,40.00,9,5,21,0.00
2012-11-18,55.0,45.4,38.0,28.0,23.1,20.0,56,42,27,0.00,40.00,13,7,29,0.00
2012-11-19,58.0,44.2,37.0,23.0,20.0,17.0,51,38,24,0.00,40.00,8,4,20,0.00
2012-11-20,65.0,49.0,37.0,23.0,17.7,14.0,46,30,16,0.00,40.00,7,4,15,0.00
2012-11-21,66.0,53.5,44.0,15.0,7.6,0.0,27,17,8,0.00,40.00,11,6,23,0.00
2012-11-22,56.0,44.0,28.0,28.0,17.2,8.0,56,36,19,0.00,40.00,11,5,27,0.00
2012-11-23,49.0,34.6,19.0,16.0,10.4,7.0,59,38,19,0.00,40.00,6,3,12,0.00
2012-11-24,60.0,52.6,46.0,11.0,7.9,5.0,22,16,13,0.00,40.00,16,6,37,0.00
2012-11-25,61.0,48.8,35.0,17.0,7.9,3.0,45,20,12,0.00,40.00,11,6,26,0.00
2012-11-26,36.0,28.7,24.0,25.0,21.6,17.0,97,77,45,0.00,40.00,4,2,9,0.00
2012-11-27,56.0,43.0,25.0,22.0,1.5,-7.0,90,22,9,0.00,40.00,13,5,28,0.00
2012-11-28,58.0,42.8,37.0,7.0,1.9,-4.0,25,18,9,0.00,40.00,8,4,17,0.00
2012-11-29,63.0,49.7,40.0,22.0,17.0,4.0,39,27,17,0.00,40.00,9,5,18,0.00
2012-11-30,59.0,47.3,40.0,24.0,19.5,17.0,42,33,21,0.00,40.00,9,4,17,0.00
2012-12-1,61.0,51.8,44.0,25.0,20.5,13.0,39,30,20,0.00,40.00,13,6,33,0.00
2012-12-2,64.0,50.8,41.0,19.0,10.9,8.0,30,21,13,0.00,40.00,10,5,22,0.00
2012-12-3,55.0,47.0,34.0,27.0,11.5,-2.0,48,25,12,0.00,40.00,10,6,35,0.00
2012-12-4,51.0,39.9,28.0,19.0,6.4,-2.0,34,25,13,0.00,40.00,14,4,40,0.00
2012-12-5,65.0,53.4,46.0,27.0,22.2,15.0,41,30,15,0.00,40.00,15,6,29,0.00
2012-12-6,49.0,38.1,29.0,33.0,24.9,-99.9,92,66,37,0.00,40.00,11,4,26,0.01
2012-12-7,52.0,37.5,26.0,23.0,19.2,16.0,70,49,24,0.00,40.00,6,3,24,0.01
2012-12-8,39.0,29.1,22.0,21.0,16.8,5.0,82,63,35,0.00,40.00,11,5,25,0.00
2012-12-9,23.0,16.4,8.0,5.0,-1.9,-8.0,57,45,30,0.00,40.00,11,4,25,0.00
2012-12-10,34.0,24.2,10.0,9.0,1.5,-8.0,58,38,24,0.00,40.00,7,4,21,0.00
2012-12-11,39.0,25.1,12.0,17.0,10.6,7.0,90,59,27,0.00,40.00,14,4,31,0.04
2012-12-12,55.0,41.3,33.0,11.0,9.2,7.0,37,27,16,0.00,40.00,10,6,29,0.04
2012-12-13,53.0,37.7,32.0,14.0,8.4,5.0,37,30,17,0.00,40.00,10,4,16,0.00
2012-12-14,43.0,36.2,29.0,15.0,8.9,5.0,46,32,24,0.00,40.00,10,4,17,0.00
2012-12-15,41.0,34.8,26.0,21.0,17.3,12.0,73,49,38,0.00,40.00,4,2,13,0.00
2012-12-16,37.0,27.8,21.0,20.0,10.3,-2.0,82,51,25,0.00,40.00,6,3,19,0.00
2012-12-17,39.0,33.1,24.0,24.0,14.2,4.0,71,46,34,0.00,40.00,21,11,41,0.00
2012-12-18,36.0,29.9,22.0,27.0,21.0,15.0,95,71,42,0.00,40.00,7,3,19,0.00
2012-12-19,24.0,15.7,5.0,21.0,11.6,0.0,94,84,66,0.00,40.00,4,3,8,0.00
2012-12-20,46.0,30.3,6.0,3.0,-2.6,-8.0,74,26,13,0.00,40.00,14,8,37,0.01
2012-12-21,55.0,40.2,31.0,6.0,0.8,-3.0,29,19,11,0.00,40.00,13,6,24,0.01
2012-12-22,54.0,40.1,32.0,8.0,-0.6,-16.0,25,18,8,0.00,40.00,8,4,15,0.00
2012-12-23,46.0,39.4,27.0,13.0,4.5,-16.0,47,24,8,0.00,40.00,20,10,46,0.00
2012-12-24,34.0,25.6,15.0,21.0,14.5,9.0,93,64,46,0.00,40.00,4,2,8,0.00
2012-12-25,21.0,9.8,2.0,12.0,4.5,-2.0,88,79,60,0.00,40.00,4,2,7,0.01
2012-12-26,36.0,20.1,8.0,21.0,13.1,4.0,85,75,50,0.00,40.00,4,2,8,0.14
2012-12-27,28.0,18.0,10.0,19.0,13.7,6.0,91,83,68,0.00,40.00,3,2,8,0.11
2012-12-28,32.0,18.4,7.0,8.0,2.1,-5.0,84,52,25,0.00,40.00,8,4,20,0.01
2012-12-29,41.0,23.8,16.0,4.0,-3.2,-11.0,43,30,18,0.00,40.00,8,3,15,0.01
2012-12-30,44.0,28.4,20.0,9.0,0.7,-7.0,61,32,14,0.00,40.00,9,3,16,0.00
2012-12-31,21.0,15.2,10.0,13.0,9.0,6.0,88,76,60,0.00,40.00,4,2,7,0.00
2013-1-1,29.0,18.7,10.0,11.0,3.9,-5.0,83,55,35,0.00,40.00,7,4,16,0.01